PEGASUS DEB, 25445

Orbit data source: Space-Track

PEGASUS DEB, 25445 is space debris in LEO originally from a launch on Thu, 19 May 1994 UTC launched from the Air Force Western Test Range (AFWTR). Debris objects in space refer to the collection of defunct objects orbiting the Earth. Examples of debris include non-operational satellites, rocket bodies, and fragments generated from explosions, collisions, or faulty payload assembly.

Loading next visibility...
Identifier
25445, 1994-029ADZ
Orbit
LEO
Country
Flag of USUS
Related business
Manufacturer
Unknown
Mission
Spacecraft
Bus & Motor
Unknown
Mass
Unknown
Launch date (UTC)
1994-05-19 (32 years ago)
Launch vehicle
Unknown
Launch site
Air Force Western Test Range (AFWTR)
Object type
Payload
Rocket body
Debris
Shape & HBR
Unknown shape, 0.1 m
Radar Cross Section
Small (<0.1 m²)

Expand to show TLE details & history
Last TLE update: 18 hours ago

TLE from 18 hours ago
0 PEGASUS DEB
1 25445U 94029ADZ 26174.77707763  .00001235  00000-0  16891-3 0  9997
2 25445  81.9861 100.9691 0127621 276.6899 111.7922 14.72328911537452
Epoch: 2026-06-23T18:38Z
TLE epoch observation values (Epoch: 2026-06-23T18:38:59.507Z)
Latitude
29.56195°
Longitude
-86.16705°
Altitude
691.7 km
Speed
7.495 km/s
True Right ascension
07h 02m 05s
True Declination
29° 24' 48"
Sunlit
Object was in daylight at epoch
Visualization orbit readout
Latitude
Unknown
Longitude
Unknown
Altitude
Unknown
Speed
Unknown
Apparent Right ascension
Unknown
Apparent Declination
Unknown
Sunlit
N/A
Visualization observer readout
Local Sidereal Time
00:18:29
Azimuth
Unknown
Elevation
Unknown
Doppler factor
Unknown
Orbital elements
Apogee altitude
740.401 km
Perigee altitude
560.996 km
Semi-major axis
7,028.836 km
Eccentricity
0.01276
Inclination
81.9861°
RAAN
100.9691°
Arg. of periapsis
276.6899°
True anomaly
113.142°
Mean anomaly
111.7922°
Eccentric anomaly
112.46791°
Mean motion
3.68314 °/min
Orbital period
97.74 mins
BSTAR
0.00016891
Loading maneuver chart data...
Computing Atmospheric mass density...

Documentation

Showing up to 5 results
|